Torna al catalogo

STARLINK-36858

AttivoComunicazioniSSO
NORAD 68021·PAYLOAD·🇺🇸 United States

Lanciato Mar 1, 2026 da Vandenberg Space Force Base

Loading…

Prossimi Passaggi (prossime 24 ore)

TLE

AggiornatoSource: CelesTrak SupGP

Epoca: Sep 14, 2026, 16:04 UTC

1 68021C 26040G   26257.66993056  .00004676  00000+0  14517-3 0  2575
2 68021  97.2857 205.0632 0001820  88.7287 230.7229 15.33435634    19

Traccia STARLINK-36858 in tempo reale con AllMySat

Download on the App Store